This is the latest recevied weather packets stored in our database for station/object YU7OR-2. If no packets are shown the sender has not sent any weather packets the latest 1 day(s).
| Time | Temp. | Humidity | Pressure | Rain* | Wind** | Luminosity | Snow |
|---|---|---|---|---|---|---|---|
| 1778079519 | 26.67° C | 43% | 1008.3 hPa | 0 mm | - | - | - |
| 1778079249 | 26.67° C | 43% | 1008.4 hPa | 0 mm | - | - | - |
| 1778078744 | 26.67° C | 43% | 1008.5 hPa | 0 mm | - | - | - |
| 1778078449 | 27.22° C | 43% | 1008.5 hPa | 0 mm | - | - | - |
| 1778078179 | 27.22° C | 43% | 1008.5 hPa | 0 mm | - | - | - |
| 1778077884 | 27.22° C | 43% | 1008.5 hPa | 0 mm | - | - | - |
| 1778076879 | 27.22° C | 43% | 1008.7 hPa | 0 mm | - | - | - |
| 1778076624 | 26.67° C | 44% | 1008.7 hPa | 0 mm | - | - | - |
| 1778076369 | 26.67° C | 43% | 1008.8 hPa | 0 mm | - | - | - |
| 1778075829 | 26.67° C | 43% | 1008.7 hPa | 0 mm | - | - | - |
| 1778075554 | 26.11° C | 43% | 1008.7 hPa | 0 mm | - | - | - |
| 1778075014 | 26.67° C | 43% | 1008.9 hPa | 0 mm | - | - | - |
| 1778074724 | 26.67° C | 43% | 1008.9 hPa | 0 mm | - | - | - |
| 1778074474 | 26.67° C | 43% | 1009 hPa | 0 mm | - | - | - |
| 1778074179 | 26.67° C | 43% | 1009.1 hPa | 0 mm | - | - | - |
| 1778073909 | 26.67° C | 43% | 1009.1 hPa | 0 mm | - | - | - |
| 1778073619 | 26.67° C | 43% | 1009.1 hPa | 0 mm | - | - | - |
| 1778073349 | 26.67° C | 43% | 1009.1 hPa | 0 mm | - | - | - |
| 1778072784 | 26.67° C | 43% | 1009.1 hPa | 0 mm | - | - | - |
| 1778072214 | 26.11° C | 43% | 1009.3 hPa | 0 mm | - | - | - |
| 1778071939 | 26.11° C | 43% | 1009.4 hPa | 0 mm | - | - | - |
| 1778071389 | 25.56° C | 43% | 1009.6 hPa | 0 mm | - | - | - |
| 1778071099 | 25.56° C | 43% | 1009.6 hPa | 0 mm | - | - | - |
| 1778070854 | 25.56° C | 43% | 1009.5 hPa | 0 mm | - | - | - |
| 1778070594 | 26.11° C | 43% | 1009.6 hPa | 0 mm | - | - | - |
* Rain latest hour (hover to see other rain measurements)
** Current wind speed in m/s (hover to see current wind gust speed)